H1 CPF 2 NER 2025 9 13 9 256 01 glonass131 H2 1301901 9131 39155 2025 9 13 0 0 0 2025 9 16 23 45 0 900 1 1 0 0 0 1 H9 10 0 60931 0.00000 0 6121055.013 20576957.079 -13795883.408 10 0 60931 900.00000 0 6310007.161 22113192.498 -11079568.216 10 0 60931 1800.00000 0 6581611.360 23285070.352 -8148462.130 10 0 60931 2700.00000 0 6882341.546 24067874.658 -5059503.121 10 0 60931 3600.00000 0 7155846.299 24449990.230 -1872595.891 10 0 60931 4500.00000 0 7345541.899 24433255.189 1350545.506 10 0 60931 5400.00000 0 7397216.661 24032771.134 4547583.468 10 0 60931 6300.00000 0 7261537.590 23276181.222 7656748.812 10 0 60931 7200.00000 0 6896354.984 22202448.145 10618016.918 10 0 60931 8100.00000 0 6268709.421 20860184.101 13374246.791 10 0 60931 9000.00000 0 5356458.080 19305602.768 15872262.815 10 0 60931 9900.00000 0 4149453.097 17600178.240 18063860.166 10 0 60931 10800.00000 0 2650223.016 15808107.338 19906716.495 10 0 60931 11700.00000 0 874128.427 13993679.297 21365194.132 10 0 60931 12600.00000 0 -1151015.839 12218660.314 22411018.931 10 0 60931 13500.00000 0 -3385838.222 10539799.698 23023823.813 10 0 60931 14400.00000 0 -5780793.011 9006559.450 23191547.179 10 0 60931 15300.00000 0 -8277973.703 7659160.276 22910678.440 10 0 60931 16200.00000 0 -10813285.286 6527024.477 22186345.231 10 0 60931 17100.00000 0 -13318888.657 5627680.396 21032239.224 10 0 60931 18000.00000 0 -15725818.670 4966174.707 19470380.020 10 0 60931 18900.00000 0 -17966669.401 4535018.262 17530719.268 10 0 60931 19800.00000 0 -19978236.473 4314669.444 15250590.050 10 0 60931 20700.00000 0 -21704006.855 4274536.679 12674009.557 10 0 60931 21600.00000 0 -23096391.792 4374459.806 9850846.188 10 0 60931 22500.00000 0 -24118608.149 4566609.440 6835865.291 10 0 60931 23400.00000 0 -24746127.283 4797725.097 3687670.868 10 0 60931 24300.00000 0 -24967628.179 5011597.553 467563.286 10 0 60931 25200.00000 0 -24785412.243 5151689.583 -2761664.411 10 0 60931 26100.00000 0 -24215259.997 5163782.330 -5936967.025 10 0 60931 27000.00000 0 -23285733.982 4998532.652 -8996298.578 10 0 60931 27900.00000 0 -22036956.314 4613830.001 -11879847.912 10 0 60931 28800.00000 0 -20518912.374 3976849.655 -14531231.823 10 0 60931 29700.00000 0 -18789352.963 3065712.112 -16898619.962 10 0 60931 30600.00000 0 -16911384.891 1870675.572 -18935767.260 10 0 60931 31500.00000 0 -14950853.513 394808.818 -20602931.830 10 0 60931 32400.00000 0 -12973629.621 -1345885.389 -21867659.151 10 0 60931 33300.00000 0 -11042916.823 -3322902.333 -22705416.611 10 0 60931 34200.00000 0 -9216694.227 -5496204.513 -23100065.991 10 0 60931 35100.00000 0 -7545402.664 -7815686.586 -23044165.339 10 0 60931 36000.00000 0 -6069971.571 -10223073.494 -22539095.470 10 0 60931 36900.00000 0 -4820268.384 -12654170.927 -21595010.171 10 0 60931 37800.00000 0 -3814033.620 -15041372.669 -20230612.872 10 0 60931 38700.00000 0 -3056343.666 -17316319.033 -18472766.050 10 0 60931 39600.00000 0 -2539620.641 -19412594.705 -16355942.867 10 0 60931 40500.00000 0 -2244185.378 -21268353.401 -13921533.524 10 0 60931 41400.00000 0 -2139326.793 -22828760.469 -11217021.357 10 0 60931 42300.00000 0 -2184839.402 -24048152.704 -8295046.016 10 0 60931 43200.00000 0 -2332961.552 -24891827.144 -5212372.865 10 0 60931 44100.00000 0 -2530630.683 -25337386.424 -2028789.164 10 0 60931 45000.00000 0 -2721959.377 -25375587.011 1194051.374 10 0 60931 45900.00000 0 -2850827.399 -25010657.436 4393813.512 10 0 60931 46800.00000 0 -2863480.818 -24260075.512 7508672.688 10 0 60931 47700.00000 0 -2711029.622 -23153815.718 10478492.437 10 0 60931 48600.00000 0 -2351739.947 -21733099.378 13245965.762 10 0 60931 49500.00000 0 -1753025.916 -20048700.294 15757700.133 10 0 60931 50400.00000 0 -893058.613 -18158876.165 17965227.042 10 0 60931 51300.00000 0 238074.476 -16127010.976 19825918.616 10 0 60931 52200.00000 0 1637708.006 -14019064.778 21303795.488 10 0 60931 53100.00000 0 3290463.582 -11900934.895 22370211.909 10 0 60931 54000.00000 0 5168647.960 -9835835.914 23004406.117 10 0 60931 54900.00000 0 7233170.372 -7881805.082 23193905.994 10 0 60931 55800.00000 0 9434943.664 -6089434.836 22934782.158 10 0 60931 56700.00000 0 11716714.331 -4499925.273 22231742.966 10 0 60931 57600.00000 0 14015248.812 -3143536.799 21098068.197 10 0 60931 58500.00000 0 16263788.370 -2038507.379 19555380.785 10 0 60931 59400.00000 0 18394673.169 -1190480.198 17633258.617 10 0 60931 60300.00000 0 20342028.267 -592466.908 15368691.268 10 0 60931 61200.00000 0 22044400.500 -225349.634 12805389.582 10 0 60931 62100.00000 0 23447236.115 -58902.407 9992959.054 10 0 60931 63000.00000 0 24505094.504 -53290.652 6985951.100 10 0 60931 63900.00000 0 25183503.333 -160986.636 3842809.369 10 0 60931 64800.00000 0 25460374.753 -329020.457 624731.048 10 0 60931 65700.00000 0 25326920.364 -501470.930 -2605534.400 10 0 60931 66600.00000 0 24788023.728 -622089.651 -5784924.549 10 0 60931 67500.00000 0 23862052.422 -636944.916 -8851315.475 10 0 60931 68400.00000 0 22580115.919 -496970.665 -11744758.755 10 0 60931 69300.00000 0 20984799.775 -160309.265 -14408677.304 10 0 60931 70200.00000 0 19128429.591 405654.372 -16790994.210 10 0 60931 71100.00000 0 17070938.779 1222656.459 -18845170.247 10 0 60931 72000.00000 0 14877431.530 2300387.563 -20531127.866 10 0 60931 72900.00000 0 12615545.393 3635846.476 -21816042.327 10 0 60931 73800.00000 0 10352726.321 5213243.077 -22674983.852 10 0 60931 74700.00000 0 8153532.344 7004454.482 -23091398.219 10 0 60931 75600.00000 0 6077080.133 8970014.853 -23057417.036 10 0 60931 76500.00000 0 4174741.863 11060596.244 -22573992.771 10 0 60931 77400.00000 0 2488188.381 13218917.012 -21650857.422 10 0 60931 78300.00000 0 1047859.138 15381996.341 -20306307.446 10 0 60931 79200.00000 0 -128079.358 17483659.175 -18566821.025 10 0 60931 80100.00000 0 -1034245.982 19457185.762 -16466517.067 10 0 60931 81000.00000 0 -1678010.364 21237994.520 -14046468.254 10 0 60931 81900.00000 0 -2078916.381 22766246.187 -11353883.060 10 0 60931 82800.00000 0 -2267591.580 23989261.140 -8441173.984 10 0 60931 83700.00000 0 -2284191.660 24863650.189 -5364931.057 10 0 60931 84600.00000 0 -2176448.059 25357071.592 -2184821.093 10 0 60931 85500.00000 0 -1997402.759 25449543.015 1037565.715 10 0 60932 0.00000 0 -1802926.730 25134255.903 4239899.506 10 0 60932 900.00000 0 -1649126.706 24417860.160 7360304.230 10 0 60932 1800.00000 0 -1589749.227 23320209.612 10338534.540 10 0 60932 2700.00000 0 -1673689.853 21873579.597 13117120.541 10 0 60932 3600.00000 0 -1942711.218 20121390.318 15642455.681 10 0 60932 4500.00000 0 -2429464.344 18116488.942 17865810.397 10 0 60932 5400.00000 0 -3155895.124 15919061.106 19744253.620 10 0 60932 6300.00000 0 -4132102.160 13594257.142 21241466.274 10 0 60932 7200.00000 0 -5355693.788 11209629.581 22328432.628 10 0 60932 8100.00000 0 -6811672.085 8832485.933 22983997.447 10 0 60932 9000.00000 0 -8472850.419 6527264.120 23195278.839 10 0 60932 9900.00000 0 -10300789.583 4353037.170 22957928.882 10 0 60932 10800.00000 0 -12247216.581 2361248.861 22276236.345 10 0 60932 11700.00000 0 -14255870.318 593773.054 21163068.233 10 0 60932 12600.00000 0 -16264700.646 -918623.156 19639649.324 10 0 60932 13500.00000 0 -18208332.169 -2157348.308 17735181.665 10 0 60932 14400.00000 0 -20020692.419 -3116542.072 15486308.698 10 0 60932 15300.00000 0 -21637696.180 -3803092.761 12936431.817 10 0 60932 16200.00000 0 -22999874.179 -4236114.560 10134890.127 10 0 60932 17100.00000 0 -24054835.514 -4445904.780 7136017.367 10 0 60932 18000.00000 0 -24759458.928 -4472423.729 3998092.952 10 0 60932 18900.00000 0 -25081718.557 -4363360.522 782206.989 10 0 60932 19800.00000 0 -25002064.527 -4171866.570 -2448938.448 10 0 60932 20700.00000 0 -24514297.234 -3954053.431 -5632267.345 10 0 60932 21600.00000 0 -23625895.718 -3766362.708 -8705581.232 10 0 60932 22500.00000 0 -22357783.985 -3662921.830 -11608797.520 10 0 60932 23400.00000 0 -20743543.611 -3693000.708 -14285147.981 10 0 60932 24300.00000 0 -18828105.202 -3898680.160 -16682311.459 10 0 60932 25200.00000 0 -16665974.058 -4312833.935 -18753456.383 10 0 60932 26100.00000 0 -14319065.745 -4957512.397 -20458170.791 10 0 60932 27000.00000 0 -11854244.177 -5842798.265 -21763260.346 10 0 60932 27900.00000 0 -9340667.380 -6966184.086 -22643398.084 10 0 60932 28800.00000 0 -6847054.098 -8312498.141 -23081613.131 10 0 60932 29700.00000 0 -4438987.163 -9854381.671 -23069609.441 10 0 60932 30600.00000 0 -2176367.274 -11553296.415 -22607909.431 10 0 60932 31500.00000 0 -111123.691 -13361018.758 -21705821.223 10 0 60932 32400.00000 0 1714723.406 -15221556.138 -20381231.928 10 0 60932 33300.00000 0 3270569.780 -17073403.770 -18660232.875 10 0 60932 34200.00000 0 4538242.841 -18852045.703 -16576586.047 10 0 60932 35100.00000 0 5512487.075 -20492594.478 -14171043.877 10 0 60932 36000.00000 0 6200902.536 -21932458.443 -11490537.256 10 0 60932 36900.00000 0 6623342.813 -23113925.237 -8587248.853 10 0 60932 37800.00000 0 6810801.317 -23986554.100 -5517590.752 10 0 60932 38700.00000 0 6803835.832 -24509278.224 -2341106.817 10 0 60932 39600.00000 0 6650600.032 -24652130.902 880678.675 10 0 60932 40500.00000 0 6404566.411 -24397525.248 4085444.067 10 0 60932 41400.00000 0 6122037.272 -23741035.914 7211262.777 10 0 60932 42300.00000 0 5859548.480 -22691651.939 10197783.111 10 0 60932 43200.00000 0 5671274.514 -21271491.478 12987374.052 10 0 60932 44100.00000 0 5606542.726 -19514991.081 15526216.613 10 0 60932 45000.00000 0 5707559.807 -17467603.330 17765321.538 10 0 60932 45900.00000 0 6007444.510 -15184056.362 19661455.686 10 0 60932 46800.00000 0 6528648.020 -12726246.138 21177961.113 10 0 60932 47700.00000 0 7281827.612 -10160847.039 22285452.672 10 0 60932 48600.00000 0 8265220.959 -7556737.391 22962381.923 10 0 60932 49500.00000 0 9464548.247 -4982344.047 23195457.194 10 0 60932 50400.00000 0 10853448.101 -2503013.484 22979911.740 10 0 60932 51300.00000 0 12394431.662 -178516.148 22319614.238 10 0 60932 52200.00000 0 14040318.094 1939214.247 21227018.179 10 0 60932 53100.00000 0 15736094.873 3808013.607 19722949.267 10 0 60932 54000.00000 0 17421128.337 5397012.506 17836232.592 10 0 60932 54900.00000 0 19031634.867 6687689.453 15603164.163 10 0 60932 55800.00000 0 20503311.244 7674407.332 13066834.416 10 0 60932 56700.00000 0 21774015.074 8364409.124 10276314.342 10 0 60932 57600.00000 0 22786382.790 8777271.455 7285718.033 10 0 60932 58500.00000 0 23490274.137 8943837.432 4153158.468 10 0 60932 59400.00000 0 23844938.329 8904672.647 939616.248 10 0 60932 60300.00000 0 23820807.908 8708109.030 -2292256.536 10 0 60932 61200.00000 0 23400841.634 8407959.629 -5479372.972 10 0 60932 62100.00000 0 22581356.648 8061002.191 -8559462.736 10 0 60932 63000.00000 0 21372312.004 7724340.109 -11472311.682 10 0 60932 63900.00000 0 19797029.477 7452755.121 -14160962.872 10 0 60932 64800.00000 0 17891362.016 7296166.874 -16572853.108 10 0 60932 65700.00000 0 15702344.417 7297309.943 -18660860.433 10 0 60932 66600.00000 0 13286383.407 7489729.381 -20384240.173 10 0 60932 67500.00000 0 10707064.273 7896181.828 -21709429.870 10 0 60932 68400.00000 0 8032667.666 8527511.255 -22610706.632 10 0 60932 69300.00000 0 5333502.379 9382047.530 -23070683.975 10 0 60932 70200.00000 0 2679167.345 10445553.037 -23080638.989 10 0 60932 71100.00000 0 135858.418 11691718.807 -22640664.555 10 0 60932 72000.00000 0 -2236167.051 13083187.834 -21759645.109 10 0 60932 72900.00000 0 -4384862.407 14573060.847 -20455058.230 10 0 60932 73800.00000 0 -6268307.117 16106819.402 -18752607.817 10 0 60932 74700.00000 0 -7856187.632 17624583.795 -16685697.944 10 0 60932 75600.00000 0 -9130784.779 19063609.630 -14294759.435 10 0 60932 76500.00000 0 -10087429.891 20360917.399 -11626443.865 10 0 60932 77400.00000 0 -10734414.344 21455944.397 -8732702.023 10 0 60932 78300.00000 0 -11092360.055 22293108.083 -5669765.706 10 0 60932 79200.00000 0 -11193080.818 22824174.260 -2497053.246 10 0 60932 80100.00000 0 -11077985.175 23010332.160 723979.771 10 0 60932 81000.00000 0 -10796090.145 22823891.143 3931022.536 10 0 60932 81900.00000 0 -10401730.617 22249529.752 7062101.539 10 0 60932 82800.00000 0 -9952061.210 21285046.518 10056761.512 10 0 60932 83700.00000 0 -9504455.299 19941582.490 12857213.368 10 0 60932 84600.00000 0 -9113909.553 18243307.025 15409428.662 10 0 60932 85500.00000 0 -8830561.579 16226580.127 17664161.293 10 0 60933 0.00000 0 -8697423.332 13938625.852 19577878.545 10 0 60933 900.00000 0 -8748423.777 11435769.371 21113586.374 10 0 60933 1800.00000 0 -9006841.958 8781312.032 22241532.145 10 0 60933 2700.00000 0 -9484195.281 6043126.033 22939775.986 10 0 60933 3600.00000 0 -10179630.104 3291068.575 23194617.805 10 0 60933 4500.00000 0 -11079841.120 594318.636 23000872.937 10 0 60933 5400.00000 0 -12159524.843 -1981255.746 22361990.344 10 0 60933 6300.00000 0 -13382350.854 -4375592.792 21290009.836 10 0 60933 7200.00000 0 -14702413.157 -6536692.876 19805357.283 10 0 60933 8100.00000 0 -16066104.057 -8422542.112 17936479.470 10 0 60933 9000.00000 0 -17414334.992 -10002623.583 15719323.052 10 0 60933 9900.00000 0 -18685013.545 -11258952.442 13196665.055 10 0 60933 10800.00000 0 -19815674.248 -12186590.354 10417305.455 10 0 60933 11700.00000 0 -20746153.125 -12793616.107 7435135.417 10 0 60933 12600.00000 0 -21421192.887 -13100551.937 4308097.932 10 0 60933 13500.00000 0 -21792867.463 -13139268.318 1097060.372 10 0 60933 14400.00000 0 -21822721.175 -12951412.476 -2135378.972 10 0 60933 15300.00000 0 -21483529.287 -12586426.832 -5326126.102 10 0 60933 16200.00000 0 -20760602.334 -12099241.826 -8412842.586 10 0 60933 17100.00000 0 -19652575.999 -11547742.217 -11335186.307 10 0 60933 18000.00000 0 -18171650.512 -10990116.370 -14036014.981 10 0 60933 18900.00000 0 -16343267.427 -10482203.401 -16462526.408 10 0 60933 19800.00000 0 -14205236.249 -10074953.406 -18567310.850 10 0 60933 20700.00000 0 -11806347.392 -9812110.975 -20309293.008 10 0 60933 21600.00000 0 -9204530.309 -9728222.355 -21654543.759 10 0 60933 22500.00000 0 -6464635.214 -9847052.142 -22576945.067 10 0 60933 23400.00000 0 -3655932.916 -10180477.291 -23058694.922 10 0 60933 24300.00000 0 -849438.923 -10727905.159 -23090642.984 10 0 60933 25200.00000 0 1884825.004 -11476239.367 -22672451.435 10 0 60933 26100.00000 0 4480516.685 -12400393.506 -21812579.366 10 0 60933 27000.00000 0 6877494.555 -13464329.188 -20528092.781 10 0 60933 27900.00000 0 9024069.535 -14622572.654 -18844305.802 10 0 60933 28800.00000 0 10878895.349 -15822144.038 -16794262.019 10 0 60933 29700.00000 0 12412420.894 -17004816.345 -14418067.892 10 0 60933 30600.00000 0 13607847.085 -18109607.732 -11762092.795 10 0 60933 31500.00000 0 14461551.707 -19075401.516 -8878052.638 10 0 60933 32400.00000 0 14982968.222 -19843583.572 -5821995.876 10 0 60933 33300.00000 0 15193927.213 -20360586.741 -2653212.230 10 0 60933 34200.00000 0 15127491.249 -20580236.333 566914.445 10 0 60933 35100.00000 0 14826334.716 -20465799.634 3776087.114 10 0 60933 36000.00000 0 14340738.404 -19991655.030 6912288.090 10 0 60933 36900.00000 0 13726284.079 -19144512.386 9914961.037 10 0 60933 37800.00000 0 13041345.927 -17924134.933 12726161.008 10 0 60933 38700.00000 0 12344483.575 -16343533.441 15291651.965 10 0 60933 39600.00000 0 11691844.830 -14428624.865 17561932.459 10 0 60933 40500.00000 0 11134685.467 -12217369.312 19493171.639 10 0 60933 41400.00000 0 10717108.311 -9758420.083 21048039.417 10 0 60933 42300.00000 0 10474114.802 -7109341.011 22196416.434 10 0 60933 43200.00000 0 10430049.503 -4334462.623 22915971.428 10 0 60933 44100.00000 0 10597502.220 -1502463.098 23192595.613 10 0 60933 45000.00000 0 10976714.000 1316228.769 23020685.851 10 0 60933 45900.00000 0 11555513.038 4052103.974 22403270.600 10 0 60933 46800.00000 0 12309785.085 6639209.048 21351974.986 10 0 60933 47700.00000 0 13204461.190 9017639.815 19886823.867 10 0 60933 48600.00000 0 14194984.213 11135790.909 18035884.404 10 0 60933 49500.00000 0 15229195.499 12952267.931 15834752.423 10 0 60933 50400.00000 0 16249565.002 14437382.170 13325889.928 10 0 60933 51300.00000 0 17195673.021 15574164.402 10557824.101 10 0 60933 52200.00000 0 18006840.151 16358853.772 7584221.236 10 0 60933 53100.00000 0 18624794.565 16800839.424 4462852.220 10 0 60933 54000.00000 0 18996263.064 16922055.657 1254468.910 10 0 60933 54900.00000 0 19075374.470 16755854.732 -1978386.601 10 0 60933 55800.00000 0 18825770.994 16345404.209 -5172615.696 10 0 60933 56700.00000 0 18222335.170 15741676.562 -8265814.291 10 0 60933 57600.00000 0 17252455.968 15001117.058 -11197514.678 10 0 60933 58500.00000 0 15916777.535 14183090.226 -13910391.460 10 0 60933 59400.00000 0 14229396.363 13347215.312 -16351405.474 10 0 60933 60300.00000 0 12217496.757 12550706.092 -18472861.052 10 0 60933 61200.00000 0 9920439.006 11845830.262 -20233353.904 10 0 60933 62100.00000 0 7388338.535 11277598.224 -21598589.700 10 0 60933 63000.00000 0 4680196.321 10881780.753 -22542056.537 10 0 60933 63900.00000 0 1861660.152 10683340.353 -23045537.968 10 0 60933 64800.00000 0 -997488.099 10695342.737 -23099457.088 10 0 60933 65700.00000 0 -3826012.783 10918393.657 -22703045.977 10 0 60933 66600.00000 0 -6553959.295 11340623.467 -21864338.652 10 0 60933 67500.00000 0 -9115328.807 11938218.054 -20599989.427 10 0 60933 68400.00000 0 -11450581.588 12676471.438 -18934922.130 10 0 60933 69300.00000 0 -13508865.516 13511313.255 -16901818.956 10 0 60933 70200.00000 0 -15249878.712 14391244.521 -14540460.721 10 0 60933 71100.00000 0 -16645291.180 15259598.239 -11896933.004 10 0 60933 72000.00000 0 -17679669.172 16057028.270 -9022714.976 10 0 60933 72900.00000 0 -18350867.154 16724120.950 -5973669.684 10 0 60933 73800.00000 0 -18669874.495 17204019.432 -2808956.003 10 0 60933 74700.00000 0 -18660126.622 17444950.853 410116.328 10 0 60933 75600.00000 0 -18356312.366 17402551.103 3621266.564 10 0 60933 76500.00000 0 -17802729.726 17041890.846 6762435.472 10 0 60933 77400.00000 0 -17051260.376 16339119.232 9772968.384 10 0 60933 78300.00000 0 -16159048.445 15282657.771 12594767.290 10 0 60933 79200.00000 0 -15185980.614 13873895.395 15173391.387 10 0 60933 80100.00000 0 -14192072.144 12127356.192 17459086.671 10 0 60933 81000.00000 0 -13234866.856 10070332.617 19407726.682 10 0 60933 81900.00000 0 -12366958.088 7741998.530 20981648.146 10 0 60933 82800.00000 0 -11633732.543 5192037.258 22150367.059 10 0 60933 83700.00000 0 -11071429.825 2478839.312 22891162.732 10 0 60933 84600.00000 0 -10705597.712 -332658.398 23189519.296 10 0 60933 85500.00000 0 -10550007.356 -3173405.405 23039416.345 10 0 60934 0.00000 0 -10606074.137 -5972844.745 22443462.662 10 0 60934 900.00000 0 -10862809.669 -8661590.646 21412868.874 10 0 60934 1800.00000 0 -11297308.689 -11174064.457 19967258.659 10 0 60934 2700.00000 0 -11875752.938 -13450986.161 18134318.834 10 0 60934 3600.00000 0 -12554892.443 -15441614.990 15949293.190 10 0 60934 4500.00000 0 -13283944.509 -17105647.299 13454327.020 10 0 60934 5400.00000 0 -14006832.607 -18414691.452 10697672.579 10 0 60934 6300.00000 0 -14664672.226 -19353256.557 7732768.785 10 0 60934 7200.00000 0 -15198399.309 -19919211.701 4617211.576 10 0 60934 8100.00000 0 -15551429.695 -20123694.485 1411634.193 10 0 60934 9000.00000 0 -15672235.611 -19990470.914 -1821480.789 10 0 60934 9900.00000 0 -15516727.789 -19554772.421 -5019033.619 10 0 60934 10800.00000 0 -15050339.357 -18861658.561 -8118558.151 10 0 60934 11700.00000 0 -14249720.001 -17963974.893 -11059464.725 10 0 60934 12600.00000 0 -13103965.389 -16919993.506 -13784248.426 10 0 60934 13500.00000 0 -11615326.951 -15790837.822 -16239636.595 10 0 60934 14400.00000 0 -9799369.694 -14637802.895 -18377650.824 10 0 60934 15300.00000 0 -7684569.854 -13519687.009 -20156560.644 10 0 60934 16200.00000 0 -5311368.634 -12490249.716 -21541708.827 10 0 60934 17100.00000 0 -2730721.906 -11595905.620 -22506191.308 10 0 60934 18000.00000 0 -2207.501 -10873752.494 -23031378.271 10 0 60934 18900.00000 0 2808229.398 -10350017.372 -23107266.663 10 0 60934 19800.00000 0 5630797.119 -10038985.616 -22732658.265 10 0 60934 20700.00000 0 8394538.022 -9942456.799 -21915161.270 10 0 60934 21600.00000 0 11030055.925 -10049748.294 -20671017.083 10 0 60934 22500.00000 0 13472176.412 -10338243.881 -19024757.602 10 0 60934 23400.00000 0 15662429.479 -10774461.494 -17008701.614 10 0 60934 24300.00000 0 17551252.251 -11315592.373 -14662301.937 10 0 60934 25200.00000 0 19099821.858 -11911444.314 -12031357.668 10 0 60934 26100.00000 0 20281444.572 -12506705.092 -9167108.261 10 0 60934 27000.00000 0 21082446.298 -13043429.349 -6125228.106 10 0 60934 27900.00000 0 21502530.488 -13463643.457 -2964741.790 10 0 60934 28800.00000 0 21554591.772 -13711958.627 253118.600 10 0 60934 29700.00000 0 21263996.102 -13738082.891 3466092.135 10 0 60934 30600.00000 0 20667359.979 -13499127.294 6612081.427 10 0 60934 31500.00000 0 19810881.649 -12961610.718 9630336.622 10 0 60934 32400.00000 0 18748295.087 -12103080.515 12462609.450 10 0 60934 33300.00000 0 17538532.527 -10913282.147 15054256.736 10 0 60934 34200.00000 0 16243192.688 -9394829.589 17355273.876 10 0 60934 35100.00000 0 14923919.265 -7563348.582 19321240.298 10 0 60934 36000.00000 0 13639797.487 -5447086.097 20914160.598 10 0 60934 36900.00000 0 12444875.559 -3086000.859 22103186.773 10 0 60934 37800.00000 0 11385912.585 -530370.589 22865208.949 10 0 60934 38700.00000 0 10500445.408 2161029.012 23185304.065 10 0 60934 39600.00000 0 9815254.062 4923101.149 23057034.005 10 0 60934 40500.00000 0 9345289.589 7686873.760 22482586.999 10 0 60934 41400.00000 0 9093109.451 10382116.145 21472758.387 10 0 60934 42300.00000 0 9048845.364 12940020.587 20046769.368 10 0 60934 43200.00000 0 9190706.670 15295839.826 18231924.987 10 0 60934 44100.00000 0 9486000.355 17391372.063 16063115.384 10 0 60934 45000.00000 0 9892627.176 19177190.369 13582167.365 10 0 60934 45900.00000 0 10360993.050 20614522.975 10837056.316 10 0 60934 46800.00000 0 10836256.801 21676704.568 7880991.668 10 0 60934 47700.00000 0 11260820.222 22350135.847 4771392.147 10 0 60934 48600.00000 0 11576955.162 22634708.969 1568769.970 10 0 60934 49500.00000 0 11729455.424 22543678.845 -1664454.315 10 0 60934 50400.00000 0 11668199.214 22102983.981 -4865182.372 10 0 60934 51300.00000 0 11350510.876 21350044.368 -7970888.518 10 0 60934 52200.00000 0 10743218.661 20332086.838 -10920863.572 10 0 60934 53100.00000 0 9824318.029 19104069.141 -13657425.380 10 0 60934 54000.00000 0 8584166.886 17726291.764 -16127069.874 10 0 60934 54900.00000 0 7026159.511 16261800.311 -18281537.793 10 0 60934 55800.00000 0 5166848.652 14773690.442 -20078774.183 10 0 60934 56700.00000 0 3035509.422 13322431.470 -21483760.400 10 0 60934 57600.00000 0 673162.915 11963323.553 -22469201.516 10 0 60934 58500.00000 0 -1868899.062 10744197.206 -23016055.426 10 0 60934 59400.00000 0 -4531025.388 9703452.729 -23113893.757 10 0 60934 60300.00000 0 -7247471.859 8868521.928 -22761088.515 10 0 60934 61200.00000 0 -9948926.145 8254815.758 -21964822.231 10 0 60934 62100.00000 0 -12565184.870 7865200.261 -20740923.148 10 0 60934 63000.00000 0 -15027870.403 7690020.207 -19113530.565 10 0 60934 63900.00000 0 -17273073.869 7707666.498 -17114598.786 10 0 60934 64800.00000 0 -19243814.777 7885660.265 -14783251.202 10 0 60934 65700.00000 0 -20892216.001 8182205.019 -12164998.718 10 0 60934 66600.00000 0 -22181305.377 8548138.837 -9310839.141 10 0 60934 67500.00000 0 -23086371.240 8929202.285 -6276256.130 10 0 60934 68400.00000 0 -23595818.257 9268525.142 -3120137.796 10 0 60934 69300.00000 0 -23711490.775 9509226.531 96363.707 10 0 60934 70200.00000 0 -23448453.111 9597018.997 3311009.638 10 0 60934 71100.00000 0 -22834238.513 9482707.582 6461666.925 10 0 60934 72000.00000 0 -21907600.169 9124479.837 9487493.078 10 0 60934 72900.00000 0 -20716817.766 8489891.825 12330092.196 10 0 60934 73800.00000 0 -19317630.805 7557467.970 14934621.388 10 0 60934 74700.00000 0 -17770884.698 6317848.644 17250828.059 10 0 60934 75600.00000 0 -16139986.843 4774437.883 19234000.041 10 0 60934 76500.00000 0 -14488277.183 2943523.877 20845812.127 10 0 60934 77400.00000 0 -12876420.921 853866.168 22055054.374 10 0 60934 78300.00000 0 -11359929.970 -1454235.115 22838229.493 10 0 60934 79200.00000 0 -9986914.461 -3930351.858 23180008.640 10 0 60934 80100.00000 0 -8796156.506 -6515766.781 23073537.038 10 0 60934 81000.00000 0 -7815585.537 -9145665.550 22520583.106 10 0 60934 81900.00000 0 -7061218.602 -11751594.627 21531527.084 10 0 60934 82800.00000 0 -6536610.386 -14264085.884 20125187.632 10 0 60934 83700.00000 0 -6232837.154 -16615341.528 18328487.544 10 0 60934 84600.00000 0 -6129017.003 -18741869.439 16175962.457 10 0 60934 85500.00000 0 -6193346.607 -20586959.936 13709119.449 99